Weather History for Denison, IA

Change the Weather History Date:

Sunday, June 30, 2013

  Actual Average Record
Temperature  
Mean Temperature 67 °F -  
Max Temperature 77 °F 81 °F 95 °F (2002)
Min Temperature 57 °F 62 °F 53 °F (2004)
Cooling Degree Days 2    
Growing Degree Days 17 (Base 50)    
Moisture  
Dew Point 51 °F    
Average Humidity 55    
Maximum Humidity 100    
Minimum Humidity 32    
Precipitation  
Precipitation 0.00 in - - ()
Sea Level Pressure  
Sea Level Pressure 30.07 in    
Wind  
Wind Speed 7 mph (NNE)    
Max Wind Speed 15 mph    
Max Gust Speed 21 mph    
Visibility 9 miles    
Events      
Averages and records for this station are not official NWS values.
T = Trace of Precipitation, MM = Missing Value Source: NWS Daily Summary

Daily Weather History Graph

Daily Weather History Graph

Search for Another Location

Airport:

Trip Planner

Search our weather history database for the weather conditions in past years. The results will help you decide how hot, cold, wet, or windy it might be!

Date:

Astronomy

Jun. 30, 2013 Rise Set
Actual Time 5:49 AM CDT 9:00 PM CDT
Civil Twilight 5:15 AM CDT 9:35 PM CDT
Nautical Twilight 4:31 AM CDT 10:19 PM CDT
Astronomical Twilight 3:37 AM CDT 11:12 PM CDT
Moon 12:53 AM CDT (6/30) 2:12 PM CDT (6/30)
Length of Visible Light 16h 20m
Length of Day
15h 11m
Last Quarter, 45% of the Moon is Illuminated
Jun 30
Last Quarter
Jul 8
New
Jul 15
First Quarter
Jul 22
Full
Jul 29
Last Quarter

Hourly Weather History & Observations

Time (CDT) Temp. Dew Point Humidity Pressure Visibility Wind Dir Wind Speed Gust Speed Precip Events Conditions
12:15 AM 60.8 °F 57.2 °F 88% 29.96 in 10.0 mi Calm Calm - N/A   Scattered Clouds
12:55 AM 59.0 °F 57.2 °F 94% 29.97 in 10.0 mi Calm Calm - N/A   Clear
1:15 AM 59.0 °F 57.2 °F 94% 29.98 in 10.0 mi Calm Calm - N/A   Clear
1:55 AM 57.2 °F 57.2 °F 100% 29.99 in 10.0 mi Calm Calm - N/A   Scattered Clouds
2:15 AM 59.0 °F 57.2 °F 94% 29.98 in 10.0 mi Calm Calm - N/A   Scattered Clouds
7:55 AM 60.8 °F 55.4 °F 82% 30.05 in 10.0 mi NE 9.2 mph - N/A   Clear
8:15 AM 60.8 °F 55.4 °F 82% 30.05 in 10.0 mi NNE 8.1 mph - N/A   Clear
8:35 AM 62.6 °F 55.4 °F 77% 30.06 in 10.0 mi NNE 8.1 mph - N/A   Clear
8:55 AM 64.4 °F 53.6 °F 68% 30.07 in - NE 6.9 mph - N/A   Clear
9:15 AM 64.4 °F 53.6 °F 68% 30.07 in 10.0 mi NNE 9.2 mph - N/A   Clear
9:35 AM 64.4 °F 53.6 °F 68% 30.07 in 10.0 mi NNE 10.4 mph - N/A   Clear
9:55 AM 64.4 °F 53.6 °F 68% 30.07 in 10.0 mi NNE 9.2 mph - N/A   Clear
10:15 AM 66.2 °F 53.6 °F 64% 30.07 in 10.0 mi NNE 8.1 mph - N/A   Clear
10:35 AM 68.0 °F 53.6 °F 60% 30.08 in 10.0 mi NNE 10.4 mph - N/A   Clear
10:55 AM 68.0 °F 53.6 °F 60% 30.08 in 10.0 mi NNE 10.4 mph 16.1 mph N/A   Clear
11:15 AM 69.8 °F 53.6 °F 56% 30.08 in 10.0 mi NNE 10.4 mph - N/A   Clear
11:35 AM 69.8 °F 53.6 °F 56% 30.08 in 10.0 mi NNE 11.5 mph - N/A   Clear
11:55 AM 71.6 °F 53.6 °F 53% 30.08 in 10.0 mi NE 9.2 mph - N/A   Clear
12:15 PM 71.6 °F 48.2 °F 43% 30.08 in 10.0 mi NNE 12.7 mph 19.6 mph N/A   Clear
12:35 PM 73.4 °F 50.0 °F 44% 30.08 in 9.0 mi NNE 12.7 mph - N/A   Clear
12:55 PM 73.4 °F 50.0 °F 44% 30.08 in 10.0 mi North 9.2 mph 18.4 mph N/A   Clear
1:15 PM 75.2 °F 50.0 °F 41% 30.07 in 10.0 mi ENE 11.5 mph 18.4 mph N/A   Clear
1:35 PM 75.2 °F 48.2 °F 38% 30.07 in 10.0 mi NNE 15.0 mph - N/A   Clear
1:55 PM 75.2 °F 50.0 °F 41% 30.07 in 10.0 mi NNE 12.7 mph - N/A   Clear
2:15 PM 75.2 °F 48.2 °F 38% 30.08 in 10.0 mi NE 13.8 mph 20.7 mph N/A   Clear
2:35 PM 75.2 °F 48.2 °F 38% 30.07 in 10.0 mi NNE 13.8 mph - N/A   Clear
2:55 PM 77.0 °F 48.2 °F 36% 30.07 in 10.0 mi NE 13.8 mph 20.7 mph N/A   Clear
3:15 PM 77.0 °F 48.2 °F 36% 30.07 in 10.0 mi NNE 11.5 mph 17.3 mph N/A   Clear
3:35 PM 77.0 °F 48.2 °F 36% 30.07 in 10.0 mi North 12.7 mph 19.6 mph N/A   Clear
3:55 PM 77.0 °F 46.4 °F 34% 30.07 in 9.0 mi NE 12.7 mph - N/A   Clear
4:15 PM 77.0 °F 46.4 °F 34% 30.07 in 9.0 mi ENE 11.5 mph - N/A   Clear
4:35 PM 77.0 °F 46.4 °F 34% 30.07 in 10.0 mi NE 11.5 mph 19.6 mph N/A   Clear
4:55 PM 77.0 °F 46.4 °F 34% 30.07 in 9.0 mi NNE 13.8 mph - N/A   Clear
5:15 PM 77.0 °F 46.4 °F 34% 30.07 in 9.0 mi NNE 12.7 mph - N/A   Clear
5:35 PM 77.0 °F 44.6 °F 32% 30.06 in 9.0 mi NNE 13.8 mph - N/A   Clear
5:55 PM 77.0 °F 44.6 °F 32% 30.07 in - NE 10.4 mph 17.3 mph N/A   Clear
6:15 PM 77.0 °F 46.4 °F 34% 30.07 in 9.0 mi NE 11.5 mph - N/A   Clear
6:35 PM 75.2 °F 46.4 °F 36% 30.07 in 9.0 mi NE 9.2 mph 16.1 mph N/A   Clear
6:55 PM 75.2 °F 46.4 °F 36% 30.07 in 9.0 mi NE 6.9 mph 15.0 mph N/A   Clear
7:15 PM 75.2 °F 50.0 °F 41% 30.07 in 9.0 mi NNE 8.1 mph 13.8 mph N/A   Clear
7:35 PM 73.4 °F 50.0 °F 44% 30.08 in 9.0 mi NNE 9.2 mph - N/A   Clear
7:55 PM 73.4 °F 50.0 °F 44% 30.07 in 8.0 mi NNE 5.8 mph - N/A   Clear
8:15 PM 71.6 °F 50.0 °F 46% 30.08 in 8.0 mi NNE 5.8 mph - N/A   Clear
8:35 PM 69.8 °F 51.8 °F 53% 30.08 in 7.0 mi North 4.6 mph - N/A   Clear
8:55 PM 69.8 °F 51.8 °F 53% 30.08 in 6.0 mi North 4.6 mph - N/A   Haze
9:15 PM 68.0 °F 51.8 °F 56% 30.09 in 6.0 mi Calm Calm - N/A   Haze
9:55 PM 66.2 °F 51.8 °F 60% 30.10 in 9.0 mi NNE 5.8 mph - N/A   Scattered Clouds
10:15 PM 64.4 °F 53.6 °F 68% 30.11 in 9.0 mi NNE 4.6 mph - N/A   Overcast
10:35 PM 62.6 °F 53.6 °F 72% 30.11 in 10.0 mi Calm Calm - N/A   Overcast
11:35 PM 59.0 °F 53.6 °F 82% 30.12 in 10.0 mi Calm Calm - N/A   Overcast
11:55 PM 57.2 °F 53.6 °F 88% 30.12 in 10.0 mi NE 3.5 mph - N/A   Overcast